TimeCST,TemperatureF,Dew PointF,Humidity,Sea Level PressureIn,VisibilityMPH,Wind Direction,Wind SpeedMPH,Gust SpeedMPH,PrecipitationIn,Events,Conditions,WindDirDegrees,DateUTC
12:15 AM,42.8,37.4,81,30.46,10.0,East,6.9,-,N/A,,Clear,80,2013-01-10 06:15:00
12:35 AM,42.8,37.4,81,30.44,10.0,ENE,6.9,-,N/A,,Clear,60,2013-01-10 06:35:00
2:15 AM,44.6,37.4,76,30.41,10.0,East,10.4,-,N/A,,Clear,80,2013-01-10 08:15:00
2:35 AM,44.6,37.4,76,30.41,10.0,East,10.4,-,N/A,,Mostly Cloudy,80,2013-01-10 08:35:00
2:55 AM,44.6,37.4,76,30.40,10.0,ENE,9.2,-,N/A,,Overcast,70,2013-01-10 08:55:00
3:15 AM,44.6,39.2,81,30.39,10.0,ENE,8.1,-,N/A,,Overcast,70,2013-01-10 09:15:00
3:35 AM,44.6,37.4,76,30.37,10.0,East,10.4,-,N/A,,Overcast,80,2013-01-10 09:35:00
3:55 AM,44.6,37.4,76,30.36,10.0,East,9.2,-,N/A,,Overcast,80,2013-01-10 09:55:00
4:15 AM,44.6,37.4,76,30.35,10.0,East,8.1,-,N/A,,Light Drizzle,80,2013-01-10 10:15:00
4:35 AM,44.6,37.4,76,30.33,10.0,East,9.2,-,N/A,,Overcast,80,2013-01-10 10:35:00
4:55 AM,44.6,37.4,76,30.32,10.0,East,10.4,-,N/A,,Overcast,80,2013-01-10 10:55:00
5:15 AM,44.6,37.4,76,30.31,10.0,East,10.4,-,N/A,,Overcast,80,2013-01-10 11:15:00
5:35 AM,44.6,39.2,81,30.31,10.0,East,10.4,-,N/A,,Light Drizzle,90,2013-01-10 11:35:00
5:55 AM,44.6,39.2,81,30.32,10.0,East,9.2,-,N/A,,Light Drizzle,90,2013-01-10 11:55:00
6:15 AM,44.6,41.0,87,30.31,10.0,East,10.4,-,N/A,,Drizzle,90,2013-01-10 12:15:00
6:35 AM,44.6,42.8,93,30.31,10.0,East,12.7,-,N/A,Rain,Light Rain,90,2013-01-10 12:35:00
6:55 AM,44.6,42.8,93,30.30,7.0,East,13.8,-,N/A,Rain,Rain,90,2013-01-10 12:55:00
7:15 AM,42.8,42.8,100,30.28,7.0,East,13.8,-,N/A,Rain,Rain,80,2013-01-10 13:15:00
7:55 AM,42.8,42.8,100,30.27,10.0,East,17.3,-,N/A,,Overcast,90,2013-01-10 13:55:00
8:15 AM,42.8,42.8,100,30.26,10.0,East,16.1,-,N/A,,Overcast,90,2013-01-10 14:15:00
8:35 AM,44.6,44.6,100,30.25,10.0,East,18.4,25.3,N/A,,Overcast,100,2013-01-10 14:35:00
8:55 AM,44.6,44.6,100,30.25,10.0,ESE,18.4,25.3,N/A,,Overcast,110,2013-01-10 14:55:00
9:15 AM,42.8,42.8,100,30.25,3.0,ESE,12.7,18.4,0.06,Rain,Rain,110,2013-01-10 15:15:00
9:35 AM,42.8,42.8,100,30.24,3.0,East,13.8,-,0.07,Rain,Light Rain,100,2013-01-10 15:35:00
9:55 AM,42.8,42.8,100,30.24,4.0,ESE,10.4,-,0.07,Rain,Light Rain,110,2013-01-10 15:55:00
10:15 AM,42.8,42.8,100,30.24,4.0,ESE,8.1,-,N/A,,Overcast,110,2013-01-10 16:15:00
10:35 AM,42.8,42.8,100,30.22,2.0,ESE,8.1,-,N/A,,Overcast,110,2013-01-10 16:35:00
10:55 AM,44.6,44.6,100,30.22,3.0,ESE,8.1,-,N/A,,Overcast,120,2013-01-10 16:55:00
11:15 AM,44.6,44.6,100,30.19,2.0,ESE,8.1,-,N/A,,Overcast,110,2013-01-10 17:15:00
11:35 AM,44.6,44.6,100,30.16,1.2,East,9.2,-,N/A,,Overcast,100,2013-01-10 17:35:00
11:55 AM,44.6,44.6,100,30.14,1.2,ESE,12.7,-,N/A,,Overcast,110,2013-01-10 17:55:00
12:15 PM,46.4,46.4,100,30.11,1.2,ESE,15.0,-,N/A,,Overcast,110,2013-01-10 18:15:00
12:35 PM,46.4,46.4,100,30.10,1.8,ESE,15.0,-,N/A,,Overcast,110,2013-01-10 18:35:00
12:55 PM,46.4,46.4,100,30.09,2.0,ESE,15.0,19.6,N/A,,Overcast,120,2013-01-10 18:55:00
1:15 PM,46.4,46.4,100,30.09,1.2,ESE,17.3,21.9,N/A,,Overcast,120,2013-01-10 19:15:00
1:35 PM,48.2,48.2,100,30.08,0.8,ESE,12.7,-,N/A,Rain,Light Rain,120,2013-01-10 19:35:00
1:55 PM,48.2,48.2,100,30.07,0.8,ESE,11.5,-,N/A,Rain,Rain,120,2013-01-10 19:55:00
2:15 PM,48.2,48.2,100,30.04,1.2,East,11.5,18.4,N/A,,Overcast,100,2013-01-10 20:15:00
2:35 PM,48.2,48.2,100,30.03,0.2,East,15.0,-,N/A,Fog,Fog,100,2013-01-10 20:35:00
2:55 PM,50.0,50.0,100,30.01,0.2,ESE,11.5,-,N/A,Fog,Fog,110,2013-01-10 20:55:00
3:15 PM,51.8,51.8,100,30.00,0.5,East,11.5,-,N/A,Rain,Light Rain,100,2013-01-10 21:15:00
3:35 PM,51.8,51.8,100,29.99,0.8,ESE,12.7,-,N/A,Rain,Light Rain,110,2013-01-10 21:35:00
3:55 PM,51.8,51.8,100,29.98,1.2,ESE,12.7,-,N/A,,Light Drizzle,110,2013-01-10 21:55:00
4:15 PM,53.6,53.6,100,29.97,1.2,ESE,15.0,20.7,N/A,Rain,Rain,110,2013-01-10 22:15:00
4:35 PM,53.6,53.6,100,29.95,0.5,ESE,12.7,18.4,N/A,Rain,Light Rain,110,2013-01-10 22:35:00
4:55 PM,53.6,53.6,100,29.95,0.2,ESE,11.5,-,N/A,Fog,Fog,110,2013-01-10 22:55:00
5:15 PM,53.6,53.6,100,29.95,0.5,ESE,10.4,-,N/A,Fog,Fog,110,2013-01-10 23:15:00
5:35 PM,53.6,53.6,100,29.94,0.5,ESE,10.4,16.1,N/A,Fog,Fog,110,2013-01-10 23:35:00
5:55 PM,55.4,55.4,100,29.94,0.5,ESE,9.2,-,N/A,,Drizzle,120,2013-01-10 23:55:00
6:15 PM,55.4,55.4,100,29.93,1.2,ESE,9.2,-,N/A,,Overcast,120,2013-01-11 00:15:00
6:35 PM,55.4,55.4,100,29.94,2.0,ESE,5.8,-,N/A,,Overcast,120,2013-01-11 00:35:00
6:55 PM,55.4,55.4,100,29.93,2.0,SE,4.6,-,N/A,,Overcast,130,2013-01-11 00:55:00
7:15 PM,55.4,55.4,100,29.93,1.8,ESE,4.6,-,N/A,,Overcast,120,2013-01-11 01:15:00
7:35 PM,57.2,57.2,100,29.91,1.8,ESE,5.8,-,0.01,Rain,Rain,110,2013-01-11 01:35:00
7:55 PM,57.2,57.2,100,29.90,2.5,East,10.4,-,0.01,Rain,Light Rain,100,2013-01-11 01:55:00
8:15 PM,57.2,57.2,100,29.88,3.0,East,11.5,-,N/A,Rain,Light Rain,100,2013-01-11 02:15:00
8:35 PM,59.0,59.0,100,29.87,4.0,ESE,10.4,-,0.03,Rain,Light Rain,110,2013-01-11 02:35:00
8:55 PM,60.8,60.8,100,29.86,4.0,ESE,12.7,-,0.05,Rain,Heavy Rain,120,2013-01-11 02:55:00
9:15 PM,60.8,60.8,100,29.85,5.0,SE,15.0,18.4,N/A,Rain,Light Rain,130,2013-01-11 03:15:00
9:35 PM,60.8,60.8,100,29.84,4.0,SE,10.4,-,0.01,Rain,Light Rain,130,2013-01-11 03:35:00
9:55 PM,60.8,60.8,100,29.83,4.0,SE,9.2,-,0.04,Rain,Rain,140,2013-01-11 03:55:00
10:15 PM,60.8,60.8,100,29.82,7.0,SSE,8.1,16.1,0.01,Rain,Light Rain,150,2013-01-11 04:15:00
10:35 PM,60.8,60.8,100,29.81,7.0,SSE,10.4,17.3,0.03,Rain,Rain,150,2013-01-11 04:35:00
10:55 PM,62.6,62.6,100,29.81,7.0,South,15.0,21.9,0.05,Rain,Light Rain,170,2013-01-11 04:55:00
11:15 PM,62.6,62.6,100,29.82,7.0,SSW,16.1,27.6,0.01,Rain,Light Rain,200,2013-01-11 05:15:00
11:35 PM,62.6,62.6,100,29.81,10.0,SW,9.2,17.3,0.02,Rain,Light Rain,220,2013-01-11 05:35:00
11:55 PM,60.8,60.8,100,29.82,10.0,SSW,9.2,-,0.02,,Mostly Cloudy,210,2013-01-11 05:55:00